PAL112 RPLL-KLAX

Flight info

Callsign PAL112
Flight time N/A
Altitude 29000
Route JOM2R JOM A590 GURAG/N0503F310 A590 BUBDO Y527 DOMBI Y57 POROT Y809 AVBET/N0494F330 OTR11 LEPKI DCT 38N160E 41N170E 42N180E 44N170W/N0482F350 46N160W 46N150W 43N140W 41N130W/N0478F370 DCT TRYSH DCT ENI DCT OAK DCT BURGL IRNMN2
Aircraft B77W/H-SDE1E2E3FGHIJ2J3J4J5M1RWXY/LB1D1

Departure

Time 2026-05-01 14:36
Airport Ninoy Aquino International Airport (RPLL)

Arrival

Time N/A
Airport Los Angeles International Airport (KLAX)
Time Latitude Longitude Altitude Speed Heading
2026-05-01 13:40 14.50473 121.00594 88 ft 0 kts 15°
2026-05-01 14:23 14.50465 121.00592 87 ft 2 kts 15°
2026-05-01 14:23 14.50451 121.00588 87 ft 2 kts 15°
2026-05-01 14:24 14.50436 121.00584 87 ft 2 kts 14°
2026-05-01 14:24 14.50422 121.00581 87 ft 2 kts 14°
2026-05-01 14:24 14.50413 121.00577 87 ft 2 kts 14°
2026-05-01 14:24 14.50398 121.00576 87 ft 2 kts 350°
2026-05-01 14:25 14.50385 121.00581 87 ft 2 kts 327°
2026-05-01 14:25 14.50374 121.00590 87 ft 2 kts 306°
2026-05-01 14:25 14.50367 121.00604 87 ft 2 kts 285°
2026-05-01 14:25 14.50365 121.00620 87 ft 2 kts 263°
2026-05-01 14:26 14.50369 121.00634 87 ft 1 kts 242°
2026-05-01 14:26 14.50370 121.00636 87 ft 0 kts 241°
2026-05-01 14:30 14.50350 121.00597 87 ft 5 kts 241°
2026-05-01 14:30 14.50328 121.00556 87 ft 7 kts 240°
2026-05-01 14:30 14.50298 121.00503 87 ft 9 kts 240°
2026-05-01 14:31 14.50233 121.00386 87 ft 8 kts 240°
2026-05-01 14:31 14.50217 121.00357 87 ft 3 kts 240°
2026-05-01 14:31 14.50193 121.00336 87 ft 5 kts 189°
2026-05-01 14:31 14.50159 121.00341 87 ft 4 kts 164°
2026-05-01 14:32 14.50129 121.00333 87 ft 6 kts 219°
2026-05-01 14:32 14.50093 121.00285 87 ft 10 kts 240°
2026-05-01 14:32 14.50049 121.00205 87 ft 14 kts 241°
2026-05-01 14:32 14.50005 121.00123 87 ft 11 kts 241°
2026-05-01 14:33 14.49968 121.00056 87 ft 10 kts 240°
2026-05-01 14:33 14.49938 121.00000 88 ft 6 kts 240°
2026-05-01 14:33 14.49908 120.99965 88 ft 6 kts 204°
2026-05-01 14:33 14.49870 120.99971 88 ft 5 kts 152°
2026-05-01 14:34 14.49834 120.99990 88 ft 5 kts 152°
2026-05-01 14:34 14.49803 121.00013 88 ft 5 kts 126°
2026-05-01 14:34 14.49801 121.00048 88 ft 5 kts 63°
2026-05-01 14:34 14.49823 121.00084 88 ft 3 kts 59°
2026-05-01 14:35 14.49831 121.00099 88 ft 5 kts 60°
2026-05-01 14:35 14.49929 121.00275 88 ft 57 kts 60°
2026-05-01 14:35 14.50232 121.00818 88 ft 115 kts 61°
2026-05-01 14:35 14.50725 121.01707 88 ft 166 kts 61°
2026-05-01 14:36 14.51365 121.02844 208 ft 198 kts 62°
2026-05-01 14:36 14.52041 121.04084 847 ft 198 kts 62°
2026-05-01 14:36 14.52725 121.05340 1437 ft 207 kts 62°
2026-05-01 14:36 14.53431 121.06639 2122 ft 208 kts 62°
2026-05-01 14:37 14.54150 121.07961 2536 ft 213 kts 62°
2026-05-01 14:37 14.54880 121.09299 2966 ft 216 kts 62°
2026-05-01 14:37 14.55579 121.10648 3409 ft 218 kts 63°
2026-05-01 14:37 14.56318 121.12086 3672 ft 230 kts 62°
2026-05-01 14:38 14.57108 121.13577 4006 ft 243 kts 62°
2026-05-01 14:38 14.57918 121.15127 4517 ft 247 kts 62°
2026-05-01 14:38 14.58521 121.16795 4920 ft 255 kts 75°
2026-05-01 14:38 14.58948 121.18604 5265 ft 266 kts 77°
2026-05-01 14:39 14.59360 121.20493 5792 ft 270 kts 77°
2026-05-01 14:39 14.59770 121.22387 6311 ft 274 kts 77°
2026-05-01 14:39 14.60187 121.24335 6773 ft 282 kts 77°
2026-05-01 14:39 14.60623 121.26299 7311 ft 286 kts 77°
2026-05-01 14:40 14.60949 121.28316 7865 ft 289 kts 84°
2026-05-01 14:40 14.61150 121.30387 8452 ft 291 kts 84°
2026-05-01 14:40 14.61344 121.32466 8988 ft 294 kts 84°
2026-05-01 14:40 14.61539 121.34570 9511 ft 296 kts 84°
2026-05-01 14:41 14.61735 121.36669 10012 ft 299 kts 84°
2026-05-01 14:41 14.61937 121.38851 10346 ft 309 kts 84°
2026-05-01 14:41 14.62145 121.41097 10549 ft 324 kts 84°
2026-05-01 14:41 14.62366 121.43476 10786 ft 338 kts 84°
2026-05-01 14:42 14.62592 121.45911 11042 ft 352 kts 84°
2026-05-01 14:42 14.62832 121.48502 11324 ft 365 kts 84°
2026-05-01 14:42 14.63076 121.51151 11597 ft 377 kts 84°
2026-05-01 14:42 14.63324 121.53841 11992 ft 385 kts 84°
2026-05-01 14:43 14.63580 121.56623 12529 ft 389 kts 84°
2026-05-01 14:43 14.63835 121.59389 13062 ft 392 kts 84°
2026-05-01 14:43 14.64094 121.62209 13573 ft 395 kts 84°
2026-05-01 14:43 14.64351 121.65018 14066 ft 398 kts 84°
2026-05-01 14:44 14.64613 121.67876 14568 ft 402 kts 84°
2026-05-01 14:44 14.65140 121.73643 15542 ft 408 kts 84°
2026-05-01 14:44 14.65407 121.76566 16012 ft 411 kts 84°
2026-05-01 14:45 14.65674 121.79493 16477 ft 414 kts 84°
2026-05-01 14:45 14.66216 121.85448 17381 ft 420 kts 85°
2026-05-01 14:45 14.66490 121.88470 17825 ft 423 kts 85°
2026-05-01 14:46 14.66763 121.91481 18254 ft 426 kts 85°
2026-05-01 14:46 14.67314 121.97572 19087 ft 432 kts 85°
2026-05-01 14:46 14.67595 122.00676 19475 ft 435 kts 85°
2026-05-01 14:47 14.67874 122.03781 19860 ft 438 kts 85°
2026-05-01 14:47 14.68159 122.06942 20240 ft 441 kts 85°
2026-05-01 14:47 14.68439 122.10062 20594 ft 444 kts 85°
2026-05-01 14:48 14.69010 122.16433 21299 ft 450 kts 85°
2026-05-01 14:48 14.69298 122.19649 21641 ft 452 kts 85°
2026-05-01 14:48 14.70023 122.26154 22291 ft 458 kts 78°
2026-05-01 14:49 14.72306 122.32310 22896 ft 464 kts 60°
2026-05-01 14:49 14.76353 122.37486 23488 ft 470 kts 42°
2026-05-01 14:50 14.80679 122.40965 23684 ft 477 kts 37°
2026-05-01 14:50 14.86910 122.45756 24353 ft 478 kts 37°
2026-05-01 14:51 14.89570 122.47808 24762 ft 477 kts 37°
2026-05-01 14:51 14.94938 122.51959 25279 ft 486 kts 37°
2026-05-01 14:52 15.00374 122.56172 25897 ft 491 kts 37°
2026-05-01 14:52 15.03128 122.58309 26220 ft 494 kts 37°
2026-05-01 14:52 15.08667 122.62611 26818 ft 499 kts 37°
2026-05-01 14:53 15.11456 122.64778 27116 ft 502 kts 37°
2026-05-01 14:53 15.14234 122.66937 27403 ft 504 kts 37°
2026-05-01 14:53 15.17034 122.69115 27690 ft 507 kts 37°
2026-05-01 14:53 15.19880 122.71330 27990 ft 510 kts 37°
2026-05-01 14:54 15.22720 122.73541 28323 ft 512 kts 37°
2026-05-01 14:54 15.25563 122.75754 28737 ft 511 kts 37°
2026-05-01 14:54 15.28402 122.77966 28982 ft 514 kts 37°
2026-05-01 14:55 15.34098 122.82405 29018 ft 510 kts 37°
2026-05-01 14:55 15.39748 122.86812 28956 ft 508 kts 37°
2026-05-01 14:56 15.45424 122.91242 28948 ft 510 kts 37°
2026-05-01 14:56 15.51062 122.95646 28942 ft 510 kts 37°
2026-05-01 14:57 15.56741 123.00085 28942 ft 510 kts 37°
2026-05-01 14:57 15.65226 123.06722 28948 ft 509 kts 36°
2026-05-01 14:58 15.70858 123.11132 28949 ft 509 kts 36°
2026-05-01 14:58 15.76532 123.15578 28948 ft 509 kts 36°
2026-05-01 14:59 15.82179 123.20007 28948 ft 509 kts 36°
2026-05-01 14:59 15.87827 123.24439 28948 ft 509 kts 36°
2026-05-01 15:00 15.96303 123.31096 28949 ft 509 kts 36°
2026-05-01 15:01 16.01936 123.35525 28950 ft 509 kts 36°
2026-05-01 15:01 16.07576 123.39961 28954 ft 509 kts 36°
2026-05-01 15:02 16.13233 123.44415 28954 ft 510 kts 36°
2026-05-01 15:02 16.18883 123.48867 28949 ft 510 kts 36°
2026-05-01 15:03 16.24565 123.53346 28949 ft 510 kts 36°
2026-05-01 15:03 16.30202 123.57794 28951 ft 509 kts 36°
2026-05-01 15:04 16.35860 123.62262 28952 ft 509 kts 36°
2026-05-01 15:04 16.41522 123.66736 28949 ft 510 kts 36°
2026-05-01 15:05 16.47166 123.71200 28949 ft 510 kts 36°
2026-05-01 15:05 16.52815 123.75670 28949 ft 510 kts 36°
2026-05-01 15:06 16.58463 123.80143 28950 ft 510 kts 36°
2026-05-01 15:06 16.64137 123.84641 28950 ft 510 kts 36°
2026-05-01 15:07 16.69772 123.89110 28947 ft 510 kts 36°
2026-05-01 15:07 16.75440 123.93609 28945 ft 510 kts 36°
2026-05-01 15:08 16.81077 123.98087 28945 ft 510 kts 36°
2026-05-01 15:08 16.86746 124.02594 28947 ft 511 kts 36°
2026-05-01 15:09 16.92365 124.07064 28950 ft 511 kts 36°
2026-05-01 15:09 16.98027 124.11573 28953 ft 511 kts 36°
2026-05-01 15:10 17.03687 124.16084 28954 ft 511 kts 36°
2026-05-01 15:10 17.12146 124.22830 28957 ft 511 kts 36°
2026-05-01 15:11 17.20647 124.29619 28964 ft 511 kts 36°
2026-05-01 15:12 17.26292 124.34132 28965 ft 512 kts 36°
2026-05-01 15:12 17.34775 124.40919 28965 ft 512 kts 36°
2026-05-01 15:14 17.48910 124.52249 28967 ft 512 kts 36°
2026-05-01 15:14 17.57401 124.59066 28968 ft 513 kts 36°
2026-05-01 15:15 17.68742 124.68184 28964 ft 513 kts 36°
2026-05-01 15:16 17.80069 124.77307 28964 ft 512 kts 36°
2026-05-01 15:18 17.94179 124.88689 28966 ft 512 kts 36°
2026-05-01 15:19 18.05475 124.97820 28968 ft 512 kts 36°
2026-05-01 15:19 18.13938 125.04670 28974 ft 512 kts 36°
2026-05-01 15:20 18.22411 125.11538 28970 ft 512 kts 36°
2026-05-01 15:21 18.28018 125.16087 28970 ft 512 kts 36°
2026-05-01 15:21 18.33655 125.20664 28971 ft 512 kts 36°
2026-05-01 15:22 18.42144 125.27564 28977 ft 513 kts 36°
2026-05-01 15:22 18.47796 125.32163 28981 ft 513 kts 36°
2026-05-01 15:23 18.53453 125.36771 28980 ft 514 kts 36°
2026-05-01 15:23 18.59117 125.41389 28982 ft 514 kts 36°
2026-05-01 15:24 18.64735 125.45970 28988 ft 513 kts 36°
2026-05-01 15:24 18.70412 125.50607 28992 ft 513 kts 36°
2026-05-01 15:25 18.76038 125.55205 28994 ft 513 kts 36°
2026-05-01 15:25 18.81675 125.59815 28995 ft 513 kts 36°
2026-05-01 15:26 18.87320 125.64438 28997 ft 513 kts 36°
2026-05-01 15:26 18.92964 125.69062 28992 ft 513 kts 36°
2026-05-01 15:27 18.98581 125.73668 28993 ft 513 kts 36°
2026-05-01 15:28 19.07034 125.80608 28996 ft 513 kts 36°
2026-05-01 15:28 19.12685 125.85253 28998 ft 513 kts 36°
2026-05-01 15:29 19.21125 125.92198 29000 ft 513 kts 36°
2026-05-01 15:30 19.32379 126.01472 29004 ft 512 kts 36°
2026-05-01 15:31 19.49252 126.15410 29009 ft 512 kts 36°
2026-05-01 15:32 19.60468 126.24695 29012 ft 512 kts 36°
2026-05-01 15:34 19.77263 126.38630 29017 ft 512 kts 36°